This is the latest recevied weather packets stored in our database for station/object OE3MHU-13. If no packets are shown the sender has not sent any weather packets the latest 10 day(s).
| Time | Temp. | Humidity | Pressure | Rain* | Wind** | Luminosity | Snow |
|---|---|---|---|---|---|---|---|
| 1777639698 | 22.22° C | 37% | 1028.3 hPa | 0 mm | - | - | - |
| 1777638981 | 21.11° C | 38% | 1028.3 hPa | 0 mm | - | - | - |
| 1777638675 | 21.11° C | 38% | 1028.5 hPa | 0 mm | - | - | - |
| 1777638369 | 21.11° C | 38% | 1028.8 hPa | 0 mm | - | - | - |
| 1777638064 | 21.67° C | 38% | 1028.7 hPa | 0 mm | - | - | - |
| 1777637757 | 20.56° C | 38% | 1028.7 hPa | 0 mm | - | - | - |
| 1777637451 | 21.11° C | 36% | 1028.9 hPa | 0 mm | - | - | - |
| 1777637145 | 21.67° C | 40% | 1028.8 hPa | 0 mm | - | - | - |
| 1777636839 | 20.56° C | 39% | 1029 hPa | 0 mm | - | - | - |
| 1777636534 | 21.11° C | 39% | 1029 hPa | 0 mm | - | - | - |
| 1777636227 | 20° C | 39% | 1029 hPa | 0 mm | - | - | - |
| 1777635921 | 20° C | 39% | 1029.1 hPa | 0 mm | - | - | - |
| 1777635615 | 21.67° C | 36% | 1029.2 hPa | 0 mm | - | - | - |
| 1777635309 | 20.56° C | 39% | 1029.2 hPa | 0 mm | - | - | - |
| 1777635004 | 20° C | 39% | 1029.2 hPa | 0 mm | - | - | - |
| 1777634699 | 19.44° C | 41% | 1029.4 hPa | 0 mm | - | - | - |
| 1777634399 | 18.89° C | 41% | 1029.4 hPa | 0 mm | - | - | - |
| 1777634100 | 19.44° C | 40% | 1029.4 hPa | 0 mm | - | - | - |
| 1777633800 | 20° C | 38% | 1029.5 hPa | 0 mm | - | - | - |
| 1777633500 | 19.44° C | 39% | 1029.6 hPa | 0 mm | - | - | - |
| 1777633197 | 20° C | 38% | 1029.6 hPa | 0 mm | - | - | - |
| 1777632895 | 20.56° C | 39% | 1029.7 hPa | 0 mm | - | - | - |
| 1777632596 | 20° C | 40% | 1029.7 hPa | 0 mm | - | - | - |
| 1777632295 | 18.89° C | 40% | 1029.8 hPa | 0 mm | - | - | - |
| 1777631993 | 18.89° C | 40% | 1029.8 hPa | 0 mm | - | - | - |
* Rain latest hour (hover to see other rain measurements)
** Current wind speed in m/s (hover to see current wind gust speed)